Weather History for KBTV - February, 2002

Change the Weather History Date:

Sunday, February 17, 2002

  Actual Average Record
Temperature  
Mean Temperature 26 °F 22 °F  
Max Temperature 30 °F 31 °F 53 °F (1981)
Min Temperature 21 °F 13 °F -21 °F (1963)
Degree Days  
Heating Degree Days 38 43  
Month to date heating degree days 760  
Since 1 July heating degree days 4954  
Cooling Degree Days 0 0  
Month to date cooling degree days 0  
Year to date cooling degree days 0  
Moisture  
Dew Point 25 °F    
Average Humidity 91    
Maximum Humidity 100    
Minimum Humidity 51    
Precipitation  
Precipitation 0.12 in 0.06 in 0.80 in (1954)
Month to date precipitation 1.06  
Year to date precipitation 3.12  
Snow  
Snow 0.00 in 0.60 in 9.40 in (1952)
Month to date snowfall 10.2  
Since 1 July snowfall 54.6  
Snow Depth 5.00 in    
Sea Level Pressure  
Sea Level Pressure 29.78 in    
Wind  
Wind Speed 6 mph (NNW)    
Max Wind Speed 18 mph    
Max Gust Speed 23 mph    
Visibility 2 miles    
Events Fog , Snow    
T = Trace of Precipitation, MM = Missing Value Source: NWS Daily Summary

Daily Weather History Graph

Daily Weather History Graph

Search for Another Location

Airport or City:

Trip Planner

Search our weather history database for the weather conditions in past years. The results will help you decide how hot, cold, wet, or windy it might be!

Date:

Astronomy

Feb. 17, 2002 Rise Set
Actual Time 6:49 AM EST 5:24 PM EST
Civil Twilight 6:19 AM EST 5:53 PM EST
Nautical Twilight 5:46 AM EST 6:27 PM EST
Astronomical Twilight 5:12 AM EST 7:01 PM EST
Moon 9:22 AM EST (2/17) 10:42 PM EST (2/17)
Length of Visible Light 11h 33m
Length of Day
10h 34m
Waxing Crescent, 24% of the Moon is Illuminated
Feb 17
Waxing Crescent
Feb 20
First Quarter
Feb 27
Full
Mar 5
Last Quarter
Mar 13
New

Hourly Weather History & Observations

Time (EST) Temp. Windchill Dew Point Humidity Pressure Visibility Wind Dir Wind Speed Gust Speed Precip Events Conditions
12:54 AM 30.9 °F 24.3 °F 30.0 °F 96% 29.68 in 7.0 mi ENE 6.9 mph - N/A   Overcast
1:54 AM 30.9 °F - 30.0 °F 96% 29.68 in 8.0 mi Calm Calm - N/A   Overcast
2:54 AM 30.9 °F - 30.0 °F 96% 29.66 in 7.0 mi Calm Calm - 0.00 in   Overcast
3:54 AM 30.0 °F - 28.9 °F 96% 29.66 in 6.0 mi Calm Calm - N/A   Overcast
4:54 AM 30.0 °F 26.5 °F 28.9 °F 96% 29.66 in 1.0 mi NW 3.5 mph - 0.00 in Snow Light Snow
5:04 AM 30.2 °F 26.7 °F 30.2 °F 100% 29.65 in 0.5 mi NNW 3.5 mph - 0.01 in Fog , Snow Snow
5:13 AM 30.2 °F - 30.2 °F 100% 29.65 in 0.5 mi Calm Calm - 0.01 in Fog , Snow Snow
5:18 AM 30.2 °F - 30.2 °F 100% 29.65 in 2.0 mi Calm Calm - 0.01 in Snow Light Snow
5:28 AM 30.2 °F - 30.2 °F 100% 29.64 in 1.8 mi Calm Calm - 0.01 in Snow Light Snow
5:54 AM 30.0 °F - 30.0 °F 100% 29.66 in 2.0 mi Calm Calm - 0.01 in Snow Light Snow
6:54 AM 30.0 °F - 30.0 °F 100% 29.67 in 2.5 mi Calm Calm - 0.00 in Snow Light Snow
7:15 AM 30.2 °F - 30.2 °F 100% 29.66 in 3.0 mi Calm Calm - 0.00 in   Mostly Cloudy
7:42 AM 30.2 °F - 30.2 °F 100% 29.67 in 2.0 mi Calm Calm - 0.00 in Snow Light Snow
7:54 AM 30.9 °F - 30.0 °F 96% 29.69 in 2.0 mi Calm Calm - 0.00 in Snow Light Snow
8:01 AM 30.2 °F - 30.2 °F 100% 29.68 in 1.5 mi Calm Calm - 0.00 in Snow Light Snow
8:17 AM 30.2 °F - 30.2 °F 100% 29.68 in 1.2 mi Calm Calm - 0.00 in Snow Light Snow
8:34 AM 30.2 °F - 30.2 °F 100% 29.68 in 0.8 mi Calm Calm - 0.00 in Snow Light Snow
8:42 AM 30.2 °F - 30.2 °F 100% 29.68 in 0.8 mi Calm Calm - 0.00 in Snow Light Snow
8:54 AM 30.9 °F - 30.0 °F 96% 29.70 in 0.8 mi Calm Calm - 0.00 in Snow Light Snow
9:04 AM 30.2 °F 24.3 °F 30.2 °F 100% 29.69 in 0.8 mi NW 5.8 mph - 0.00 in Snow Light Snow
9:24 AM 28.4 °F 18.5 °F 28.4 °F 100% 29.70 in 1.2 mi NW 11.5 mph - 0.00 in Snow Light Snow
9:34 AM 28.4 °F 19.7 °F 28.4 °F 100% 29.70 in 1.2 mi NNW 9.2 mph - 0.01 in Snow Light Snow
9:54 AM 28.0 °F 17.5 °F 27.0 °F 96% 29.72 in 0.8 mi NW 12.7 mph - 0.01 in Snow Light Snow
10:15 AM 28.4 °F 18.0 °F 26.6 °F 93% 29.71 in 0.2 mi NW 12.7 mph - 0.02 in Fog , Snow Snow
10:46 AM 26.6 °F 14.3 °F 24.8 °F 93% 29.73 in 0.2 mi NW 16.1 mph - 0.04 in Fog , Snow Heavy Snow
10:54 AM 25.0 °F 12.2 °F 24.1 °F 96% 29.75 in 0.1 mi NW 16.1 mph - 0.05 in Fog , Snow Heavy Snow
11:19 AM 24.8 °F 11.1 °F 24.8 °F 100% 29.74 in 0.2 mi NW 18.4 mph - 0.01 in Fog , Snow Snow
11:31 AM 24.8 °F 12.4 °F 24.8 °F 100% 29.75 in 0.5 mi NW 15.0 mph - 0.01 in Fog , Snow Snow
11:40 AM 24.8 °F 13.4 °F 24.8 °F 100% 29.75 in 0.2 mi NNW 12.7 mph - 0.01 in Fog , Snow Snow
11:54 AM 25.0 °F 13.1 °F 24.1 °F 96% 29.76 in 0.2 mi NNW 13.8 mph - 0.02 in Fog , Snow Snow
12:07 PM 24.8 °F 13.4 °F 24.8 °F 100% 29.75 in 0.5 mi NNW 12.7 mph - 0.00 in Fog , Snow Light Snow
12:40 PM 24.8 °F 13.4 °F 23.0 °F 93% 29.76 in 0.8 mi NNW 12.7 mph - 0.01 in Snow Light Snow
12:54 PM 25.0 °F 12.6 °F 21.9 °F 88% 29.78 in 1.0 mi NNW 15.0 mph - 0.01 in Snow Light Snow
1:10 PM 24.8 °F 12.4 °F 21.2 °F 86% 29.76 in 1.5 mi NNW 15.0 mph - 0.00 in Snow Light Snow
1:23 PM 24.8 °F 13.4 °F 21.2 °F 86% 29.77 in 2.0 mi NNW 12.7 mph - 0.00 in Snow Light Snow
1:34 PM 24.8 °F 14.0 °F 21.2 °F 86% 29.77 in 1.5 mi NNW 11.5 mph - 0.00 in Snow Light Snow
1:43 PM 24.8 °F 12.4 °F 23.0 °F 93% 29.78 in 1.2 mi NNW 15.0 mph - 0.00 in Snow Light Snow
1:54 PM 25.0 °F 14.2 °F 23.0 °F 92% 29.80 in 1.2 mi NW 11.5 mph - 0.00 in Snow Light Snow
2:01 PM 24.8 °F 13.4 °F 23.0 °F 93% 29.78 in 2.0 mi NNW 12.7 mph - 0.00 in Snow Light Snow
2:18 PM 24.8 °F 14.0 °F 23.0 °F 93% 29.79 in 3.0 mi NNW 11.5 mph - 0.00 in Snow Light Snow
2:25 PM 24.8 °F 11.9 °F 23.0 °F 93% 29.79 in 3.0 mi NNW 16.1 mph - 0.00 in Snow Light Snow
2:54 PM 25.0 °F 13.1 °F 23.0 °F 92% 29.83 in 1.5 mi NNW 13.8 mph - 0.00 in Snow Light Snow
2:58 PM 24.8 °F 12.4 °F 23.0 °F 93% 29.81 in 1.2 mi NNW 15.0 mph - 0.00 in Snow Light Snow
3:54 PM 25.0 °F 11.7 °F 21.9 °F 88% 29.87 in 1.0 mi North 17.3 mph 23.0 mph 0.00 in Snow Light Snow
4:08 PM 24.8 °F 12.9 °F 21.2 °F 86% 29.86 in 0.8 mi North 13.8 mph - 0.00 in Snow Light Snow
4:54 PM 25.0 °F 13.6 °F 21.9 °F 88% 29.91 in 1.0 mi NNW 12.7 mph 20.7 mph 0.01 in Snow Light Snow
5:01 PM 24.8 °F 13.4 °F 21.2 °F 86% 29.90 in 0.8 mi NNW 12.7 mph 20.7 mph 0.00 in Snow Light Snow
5:54 PM 24.1 °F 13.1 °F 21.0 °F 88% 29.96 in 1.0 mi NNW 11.5 mph 23.0 mph 0.00 in Snow Light Snow
6:54 PM 25.0 °F 14.8 °F 19.9 °F 81% 30.01 in 1.5 mi NNW 10.4 mph - 0.01 in Snow Light Snow
7:01 PM 24.8 °F 13.4 °F 19.4 °F 80% 29.99 in 3.0 mi North 12.7 mph - 0.00 in Snow Light Snow
7:45 PM 26.6 °F 20.0 °F 17.6 °F 69% 30.01 in 6.0 mi North 5.8 mph - 0.00 in Snow Light Snow
7:54 PM 26.1 °F 17.6 °F 16.0 °F 66% 30.03 in 8.0 mi North 8.1 mph - 0.00 in Snow Light Snow
8:54 PM 27.0 °F 15.2 °F 10.9 °F 51% 30.06 in 10.0 mi North 15.0 mph 23.0 mph 0.00 in   Overcast
9:54 PM 24.1 °F 12.0 °F 10.0 °F 55% 30.09 in 10.0 mi North 13.8 mph - N/A   Mostly Cloudy
10:54 PM 23.0 °F 10.1 °F 10.9 °F 60% 30.13 in 10.0 mi North 15.0 mph - N/A   Overcast
11:54 PM 21.0 °F 8.1 °F 10.0 °F 63% 30.15 in 10.0 mi North 13.8 mph - N/A   Scattered Clouds